Visibility
15.0 14.3 7.8 15.0 15.0 15.0 5.8 0.2 0.1 2.4 0.5 15.0 15.0 15.0 11.6 15.0 15.0 15.0 15.0 15.0 15.0 15.0 15.0 15.0 15.0 13.5 14.1 15.0 15.0 15.0 15.0 13.7 15.0 15.0 15.0 15.0 15.0 15.0 15.0 15.0 15.0 15.0 15.0 15.0
4.0 15.0 15.0 2.7 15.0 15.0 11.4 2.4 15.0 15.0 15.0 15.0 15.0 15.0 15.0 15.0 15.0 15.0 15.0 15.0 15.0 15.0 15.0 15.0 15.0 15.0 15.0 15.0 15.0 15.0 15.0 15.0 15.0 15.0 15.0 15.0 15.0 15.0 15.0 15.0 15.0 15.0 15.0 15.0
15.0 15.0 15.0 0.2 15.0 15.0 15.0 15.0 14.1 12.0 15.0 15.0 15.0 15.0 15.0 15.0 15.0 15.0 15.0 15.0 15.0 15.0 15.0 14.6 15.0 15.0 15.0 15.0 11.9 0.6 12.8 15.0 15.0 15.0 15.0 15.0 15.0 15.0 15.0 15.0 15.0 15.0 11.9 15.0
15.0 6.5 0.2 15.0 15.0 15.0 15.0 15.0 15.0 15.0 15.0 15.0 15.0 15.0 15.0 15.0 15.0 15.0 15.0 15.0 15.0 15.0 15.0 15.0 15.0 15.0 15.0 15.0 1.8 0.2 15.0 15.0 15.0 15.0 13.4 15.0 15.0 15.0 13.0 9.0 5.4 4.1 10.4 15.0
13.9 14.5 15.0 15.0 15.0 15.0 15.0 15.0 15.0 15.0 15.0 15.0 15.0 15.0 15.0 15.0 15.0 15.0 2.1 2.5 8.1 15.0 15.0 15.0 15.0 15.0 15.0 0.4 0.1 0.2 10.4 7.8 15.0 15.0 15.0 15.0 15.0 11.2 4.1 11.3 11.3 4.1 4.1 15.0
11.5 11.7 7.7 15.0 15.0 15.0 15.0 15.0 15.0 15.0 15.0 15.0 15.0 15.0 15.0 15.0 15.0 15.0 15.0 15.0 15.0 15.0 15.0 14.9 15.0 15.0 15.0 1.7 0.1 1.3 15.0 15.0 15.0 15.0 15.0 15.0 15.0 14.5 4.5 4.4 4.1 9.2 15.0 9.9
15.0 15.0 15.0 15.0 15.0 15.0 15.0 15.0 15.0 15.0 12.3 15.0 15.0 15.0 2.1 2.3 1.4 15.0 15.0 15.0 15.0 15.0 15.0 15.0 15.0 15.0 1.9 0.1 1.4 10.0 15.0 15.0 15.0 15.0 15.0 15.0 15.0 15.0 9.8 11.5 15.0 15.0 15.0 15.0
10.2 13.3 15.0 15.0 15.0 15.0 15.0 15.0 15.0 15.0 15.0 15.0 15.0 0.1 0.1 0.2 0.7 15.0 15.0 15.0 15.0 15.0 10.6 13.1 15.0 8.4 0.1 4.7 12.5 15.0 15.0 15.0 15.0 15.0 3.3 2.6 15.0 10.8 8.6 15.0 15.0 9.3 15.0 15.0
15.0 15.0 15.0 15.0 15.0 15.0 15.0 15.0 15.0 15.0 15.0 15.0 11.6 0.1 0.1 0.1 0.5 15.0 15.0 15.0 15.0 15.0 6.9 8.1 0.9 0.2 10.1 4.1 15.0 15.0 15.0 15.0 13.6 4.1 1.4 1.4 0.6 0.7 4.2 15.0 15.0 4.4 13.9 4.1
15.0 15.0 15.0 15.0 15.0 15.0 15.0 15.0 15.0 15.0 15.0 15.0 2.2 0.2 0.1 0.1 0.2 11.2 15.0 13.0 15.0 15.0 10.6 2.0 1.2 0.7 0.2 4.2 15.0 15.0 15.0 6.5 3.5 2.2 0.5 0.3 0.2 1.2 15.0 15.0 4.8 15.0 15.0 9.2
15.0 15.0 15.0 15.0 15.0 15.0 15.0 15.0 15.0 15.0 15.0 15.0 11.1 0.1 0.2 0.1 0.5 14.6 14.8 8.9 15.0 15.0 15.0 15.0 2.4 0.5 8.3 15.0 15.0 15.0 3.1 2.3 6.8 2.1 1.7 0.5 1.0 6.5 15.0 8.6 14.8 15.0 12.1 4.9
15.0 15.0 15.0 15.0 15.0 15.0 15.0 15.0 15.0 15.0 5.3 15.0 15.0 1.7 15.0 8.5 15.0 15.0 12.7 15.0 15.0 15.0 15.0 0.8 0.8 0.3 2.1 15.0 15.0 0.3 0.4 14.2 8.8 12.9 11.6 10.5 6.7 1.3 15.0 14.7 15.0 15.0 15.0 15.0
15.0 15.0 15.0 15.0 15.0 15.0 15.0 15.0 15.0 15.0 15.0 14.6 7.2 15.0 15.0 15.0 15.0 15.0 3.6 1.4 3.7 14.9 14.8 1.6 0.2 0.4 0.9 1.9 0.3 0.2 8.5 15.0 15.0 15.0 15.0 15.0 15.0 15.0 15.0 15.0 11.5 3.0 15.0 15.0
15.0 15.0 15.0 15.0 15.0 15.0 15.0 15.0 15.0 15.0 15.0 15.0 15.0 15.0 15.0 15.0 14.4 2.2 2.5 11.2 15.0 4.3 0.2 0.1 0.2 0.1 0.2 0.2 0.2 0.6 15.0 15.0 15.0 15.0 15.0 15.0 14.9 15.0 11.9 6.0 1.6 2.1 0.7 15.0
15.0 15.0 15.0 15.0 15.0 15.0 15.0 15.0 15.0 15.0 15.0 15.0 15.0 15.0 15.0 15.0 15.0 6.1 13.1 15.0 5.1 0.8 0.2 0.2 0.2 0.1 0.2 4.7 11.8 15.0 15.0 15.0 15.0 15.0 15.0 15.0 15.0 15.0 15.0 15.0 15.0 15.0 3.1 11.8
15.0 15.0 15.0 15.0 15.0 15.0 15.0 15.0 15.0 15.0 15.0 15.0 15.0 15.0 15.0 15.0 7.2 2.3 3.6 1.5 1.8 0.2 0.2 0.6 0.5 0.4 5.0 13.5 15.0 15.0 15.0 15.0 15.0 15.0 15.0 15.0 14.0 14.6 15.0 15.0 15.0 15.0 5.2 14.4
15.0 15.0 15.0 15.0 15.0 15.0 15.0 15.0 15.0 15.0 15.0 15.0 15.0 15.0 15.0 15.0 5.7 1.6 1.0 0.4 0.3 0.2 0.6 1.1 0.6 0.2 15.0 15.0 15.0 15.0 15.0 15.0 15.0 15.0 15.0 15.0 14.4 12.4 12.9 15.0 15.0 15.0 15.0 15.0
15.0 15.0 15.0 15.0 15.0 15.0 15.0 15.0 13.2 15.0 15.0 15.0 15.0 14.8 12.8 0.4 0.5 0.3 0.2 0.1 0.1 0.1 0.1 0.2 0.1 0.2 3.3 15.0 15.0 15.0 15.0 15.0 15.0 15.0 14.4 3.8 4.0 14.6 8.0 15.0 15.0 15.0 15.0 15.0
15.0 15.0 15.0 15.0 15.0 15.0 15.0 15.0 15.0 15.0 15.0 15.0 5.0 0.5 1.9 0.7 7.3 5.1 1.2 0.4 0.5 0.8 0.7 0.2 0.1 0.2 0.6 0.1 0.2 1.1 15.0 15.0 15.0 15.0 15.0 13.1 4.3 4.4 4.8 15.0 15.0 15.0 15.0 15.0
15.0 15.0 15.0 15.0 15.0 15.0 15.0 15.0 15.0 15.0 11.2 8.4 4.8 2.4 0.6 2.1 5.2 3.4 5.9 7.5 15.0 15.0 15.0 15.0 15.0 15.0 15.0 13.5 5.5 13.9 15.0 15.0 15.0 15.0 15.0 15.0 15.0 6.9 15.0 15.0 15.0 15.0 15.0 15.0
15.0 15.0 15.0 15.0 15.0 15.0 15.0 15.0 15.0 14.9 7.5 8.3 11.7 5.7 6.2 3.6 4.3 4.7 2.7 3.4 5.5 14.7 15.0 3.0 1.1 3.0 12.3 15.0 15.0 15.0 15.0 15.0 15.0 15.0 15.0 15.0 14.7 14.4 4.0 14.9 15.0 15.0 15.0 15.0
15.0 15.0 15.0 15.0 15.0 12.7 15.0 15.0 15.0 15.0 7.4 5.5 5.0 3.5 3.9 1.3 1.1 1.6 3.9 10.3 8.2 5.1 11.0 3.7 14.0 15.0 15.0 15.0 15.0 15.0 15.0 15.0 15.0 15.0 15.0 15.0 11.7 2.7 3.2 15.0 15.0 15.0 15.0 15.0
15.0 15.0 15.0 15.0 15.0 10.7 13.5 15.0 15.0 15.0 15.0 6.3 4.7 3.6 10.1 9.1 10.0 2.2 1.6 12.3 15.0 7.0 15.0 9.7 15.0 15.0 15.0 15.0 15.0 15.0 15.0 15.0 15.0 15.0 15.0 12.6 4.8 1.4 15.0 15.0 15.0 15.0 15.0 15.0
14.5 15.0 15.0 15.0 15.0 15.0 0.5 3.6 5.8 6.9 15.0 5.3 5.3 15.0 14.3 2.5 1.0 6.3 14.1 7.4 8.8 8.3 5.7 6.3 15.0 15.0 15.0 14.7 15.0 15.0 15.0 15.0 15.0 15.0 6.1 2.8 0.4 5.5 15.0 15.0 15.0 15.0 15.0 15.0
15.0 15.0 15.0 15.0 15.0 15.0 12.2 8.2 3.0 3.3 2.3 0.6 0.4 0.5 1.0 1.7 5.7 5.6 6.8 6.6 6.2 5.2 4.1 4.1 0.9 1.0 15.0 15.0 15.0 15.0 13.6 15.0 15.0 15.0 1.1 0.4 3.1 15.0 15.0 15.0 15.0 15.0 15.0 15.0
15.0 15.0 15.0 15.0 15.0 15.0 11.7 2.9 6.0 5.3 5.1 1.5 0.4 0.3 0.4 0.6 2.3 5.3 4.6 1.4 1.9 3.2 1.6 0.8 1.0 1.3 14.3 15.0 15.0 10.5 15.0 15.0 11.4 2.9 0.5 11.0 15.0 15.0 15.0 15.0 15.0 15.0 15.0 15.0
15.0 15.0 10.3 3.3 5.4 11.3 15.0 9.1 6.5 2.2 6.4 8.4 5.6 1.0 0.8 0.5 0.7 2.2 1.2 2.5 2.5 2.5 3.6 4.2 8.0 6.9 3.8 2.0 4.5 15.0 15.0 12.4 1.5 0.6 12.6 15.0 15.0 15.0 15.0 15.0 15.0 15.0 15.0 15.0